Regional Weather Roundup
Issued by NWS

Home | Current Version | Previous Version | Text Only | Print | Product List | Glossary Off
Versions: 1 2 3 4 5 6 7 8 9 10 11 12 13 14 15 16 17 18 19 20 21 22 23 24 25 26 27 28 29 30 31 32 33 34 35 36 37 38 39 40 41 42 43 44 45 46 47 48 49 50

000
ASUS43 KIND 211309
RWRIN

WEATHER ROUNDUP FOR INDIANA
NATIONAL WEATHER SERVICE INDIANAPOLIS IN
900 AM EDT SAT APR 21 2018

NOTE: "FAIR" INDICATES FEW OR NO CLOUDS BELOW 12,000 FEET WITH NO
SIGNIFICANT WEATHER AND/OR OBSTRUCTIONS TO VISIBILITY.

* - STATION DOES NOT REPORT WEATHER SUCH AS PRECIPITATION OR FOG.

+ - STATION NOT QUALITY CONTROLLED BY THE NATIONAL WEATHER SERVICE.
    USE DATA WITH CAUTION...ESPECIALLY DEWPOINT AND RELATIVE
    HUMIDITY OBSERVATIONS.

INZ001>003-010>013-019-020-211400-
NORTHWEST INDIANA

CITY           SKY/WX    TMP DP  RH WIND       PRES   REMARKS
GARY /AIRPORT/ CLOUDY    43  34  70 CALM      30.45S
KNOX *+        FAIR      39  30  70 SE3       30.45S
LA PORTE +     FAIR      41  25  53 CALM      30.46R
MICHIGAN CITY+ FAIR      36  32  87 CALM      30.46R
MONTICELLO +   PTSUNNY   43  27  53 CALM      30.45R
RENSSELAER +   CLOUDY    41  21  45 E7        30.44S
VALPARAISO     PTSUNNY   43  25  49 E5        30.45S

$$

LMZ046-743>745-211400-
SOUTHERN LAKE MICHIGAN

STATION/POSITION TIME  TEMP    WIND        PRES    WAVE
                       AIR SEA DIR/SP/G            HT
                 (UTC) (F)     (DEG/KT/KT) (MB)    (FT)
BURNS HARBOR     1240   44      90/  6/  7 1031.2S
MICHIGAN CITY    1240   39     220/  1/  2   N/A

$$

INZ004-005-014>016-021>024-211400-
NORTH CENTRAL INDIANA

CITY           SKY/WX    TMP DP  RH WIND       PRES   REMARKS
GOSHEN         FAIR      43  30  60 SE3       30.45S
LOGANSPORT +   FAIR      41  32  70 E3        30.46S
PERU/GRISSOM   CLOUDY    45  28  53 E6        30.45R
ROCHESTER +    FAIR      46  32  57 SE5       30.46S
SOUTH BEND     FAIR      40  27  59 E3        30.45S
WARSAW +       FAIR      45  30  57 CALM      30.46S

$$

INZ006>009-017-018-025>027-211400-
NORTHEAST INDIANA

CITY           SKY/WX    TMP DP  RH WIND       PRES   REMARKS
ANGOLA *+      FAIR      43  25  49 S6        30.45S
AUBURN +       FAIR      43  28  56 SE3       30.47S
FORT WAYNE     PTSUNNY   43  31  62 SE6       30.47S
HUNTINGTON +   FAIR      43  27  52 SE5       30.46S

$$

INZ028-029-035-036-043>045-051>053-211400-
WEST CENTRAL INDIANA

CITY           SKY/WX    TMP DP  RH WIND       PRES   REMARKS
CRAWFORDSVL +  FAIR      45  31  58 SE7       30.43S
GREENCASTLE +  FAIR      45  28  53 E6        30.43S
LAFAYETTE      FAIR      43  34  70 E5        30.44S
TERRE HAUTE    FAIR      48  32  53 E8        30.42S

$$

INZ030>032-037>040-046>048-054>057-064-065-211400-
CENTRAL INDIANA

CITY           SKY/WX    TMP DP  RH WIND       PRES   REMARKS
ANDERSON       FAIR      43  28  56 CALM      30.45
COLUMBUS       MOSUNNY   48 N/A N/A E3        30.45R
FISHERS *+     FAIR      46  32  57 SE8       30.45
FRANKFORT +    FAIR      48  31  51 SE9       30.46S
GREENWOOD *+   FAIR      46  25  43 E8        30.45R
INDIANAPOLIS   PTSUNNY   47  24  40 SE9       30.44R
-EAGLE CREEK   FAIR      48  25  40 SE7       30.43S
KOKOMO +       FAIR      43  31  62 SE7       30.46S
MARION +       FAIR      44  30  58 CALM      30.46S
MT COMFORT *+  FAIR      46  32  57 SE9       30.44S
SHELBYVILLE    FAIR      48  26  42 E10       30.44R
ZIONSVILLE +   FAIR      45  29  52 E7        30.45R

$$

INZ033-034-041-042-049-050-058-059-211400-
EAST CENTRAL INDIANA

CITY           SKY/WX    TMP DP  RH WIND       PRES   REMARKS
MUNCIE         FAIR      46  28  49 SE9       30.45R
RICHMOND +     FAIR      43  28  56 E10       30.45R

$$

INZ060-061-067>069-081>083-085>088-211400-
SOUTHWEST INDIANA

CITY           SKY/WX    TMP DP  RH WIND       PRES   REMARKS
EVANSVILLE     FAIR      49  32  52 NE8       30.38R
HUNTINGBURG +  FAIR      50  30  46 E10       30.39R
WASHINGTON +   FAIR      45  32  60 E6        30.40R

$$

INZ062-063-066-070>080-084-089>092-211400-
SOUTH CENTRAL AND SOUTHEAST INDIANA

CITY           SKY/WX    TMP DP  RH WIND       PRES   REMARKS
BATESVILLE +   SUNNY     45  25  45 MISG      30.44R
BEDFORD +      FAIR      46  27  46 E7        30.41R
BLOOMINGTON    FAIR      49  27  42 E10       30.42R
FRENCH LICK *+ FAIR      46  23  39 NE9       30.40S
MADISON *+     FAIR      46  25  42 E7        30.44R
NORTH VERNON + FAIR      46  21  36 E7        30.43S
SEYMOUR +      FAIR      50  28  43 E7        30.43R

$$





USA.gov is the U.S. government's official web portal to all federal, state and local government web resources and services.